Location: ??????
(35.9166°N, 43.7487°E)
Time: 19:04:08
(UTC+00:00)

Daily predictions for brighter satellites

Satellite Brightness Start Highest point End
(mag) Time Altitude Azimuth Time Altitude Azimuth Time Altitude Azimuth
Helios 1A Rocket 3.1 16:19:53 10° SSE 16:23:53 54° ENE 16:27:56 10° N
Meteor 2-15 4.4 16:20:23 10° S 16:26:23 74° E 16:32:27 10° N
ERS-2 2.1 16:23:29 10° NNE 16:27:06 65° ESE 16:30:41 10° S
Cosmos 921 Rocket 3.0 16:24:38 10° N 16:28:51 61° ENE 16:32:59 10° SSE
Cosmos 1842 Rocket 3.6 16:24:39 10° S 16:29:05 71° E 16:33:34 10° NNE
Cosmos 1408 Rocket 3.7 16:25:25 10° N 16:29:46 56° E 16:34:07 10° SSE
SL-08 RB Rocket 4.2 16:29:26 10° S 16:33:56 63° W 16:38:27 10° NNW
Cosmos 2208 Rocket 4.3 16:28:48 10° N 16:34:07 53° ENE 16:39:26 10° SSE
Cosmos 841 Rocket 3.6 16:29:26 10° NNW 16:34:37 84° WSW 16:39:44 10° SSE
OBJECT-B 1.7 16:31:54 10° SE 16:34:48 32° ENE 16:37:44 10° N
H-2A R/B 4.1 16:32:01 10° SSW 16:36:09 27° W 16:40:19 10° NW
USA 267 3.8 16:31:06 10° SSE 16:37:30 56° SW 16:43:57 10° NW
GPS 2-04 Rocket1 4.0 16:34:58 10° SSW 16:38:13 22° SSE 16:41:21 10° ESE
BREEZE-M R/B 3.3 16:35:08 10° WSW 16:38:36 46° NW 16:41:03 10° NE
CZ-4 R/B 3.9 16:37:42 10° SSW 16:41:02 23° W 16:44:20 10° NW
DELTA 2 R/B (1) 4.0 16:39:15 10° WNW 16:44:46 60° N 16:50:15 10° E
Cosmos 1242 Rocket 4.3 16:44:44 13° ESE 16:46:02 15° E 16:48:04 10° NE
Cosmos 1174 4.5 16:43:56 10° NW 16:47:13 40° WSW 16:50:06 10° S
Resurs 1-3 4.1 16:56:53 15° SE 17:00:15 41° ENE 17:04:22 10° N
Cosmos 1862 3.7 16:57:30 10° NNW 17:01:30 67° W 17:05:29 10° S
Cosmos 1743 Rocket 3.5 16:58:00 10° N 17:02:19 67° E 17:06:28 11° SSE
FALCON 9 DEB 3.7 17:00:44 10° NNW 17:03:36 36° NE 17:05:08 21° E
S3M 4.2 16:58:25 10° SSE 17:04:36 54° E 17:10:45 10° NNE
Cosmos 1933 4.1 17:01:56 16° SSE 17:04:36 32° E 17:08:13 10° NNE
BREEZE-M (TANK) 4.3 16:51:17 10° NW 17:05:42 57° SW 17:08:54 15° SSE
Cosmos 2221 4.0 17:02:42 10° SSW 17:06:42 39° W 17:10:46 10° N
Cosmos 1437 Rocket 2.6 17:04:22 10° S 17:08:10 79° E 17:12:05 10° N
USA 290 4.2 17:06:53 10° NNE 17:08:48 15° ENE 17:09:16 14° ENE
Ariane Rocket 3.0 17:04:47 14° SSE 17:09:07 62° ENE 17:14:07 10° N
Cosmos 1500 Rocket 3.5 17:09:34 10° N 17:13:58 86° W 17:18:03 12° S
TIMED 4.4 17:10:36 10° NNW 17:15:00 77° ENE 17:17:54 20° SSE
X-37B 3.3 17:14:43 10° NW 17:16:49 16° N 17:18:55 10° NE
MOS 1 4.2 17:15:35 13° SSE 17:20:39 84° ENE 17:26:21 10° NNW
Cosmos 1553 Rocket 4.2 17:16:39 10° SSW 17:22:42 72° W 17:28:54 10° N
Cosmos 1782 3.6 17:25:16 29° ESE 17:25:41 30° E 17:29:12 10° NNE
Cosmos 2278 Rocket 3.4 17:26:38 21° E 17:26:38 21° E 17:30:30 10° NE
Cosmos 1354 Rocket 4.0 17:22:34 10° S 17:27:42 62° ESE 17:32:52 10° NNE
NOSS 3-3 (A) 3.8 17:22:38 10° SSW 17:28:02 56° ESE 17:34:01 10° NE
NOSS 3-3 (C) 3.8 17:22:45 10° SSW 17:28:09 56° ESE 17:34:08 10° NE
SJ-6B 4.3 17:31:39 10° SSW 17:35:08 33° W 17:38:42 10° NNW
Cosmos 1844 Rocket 3.8 17:30:50 10° SW 17:36:08 45° WNW 17:41:29 10° N
USA 186 4.4 17:35:18 10° WSW 17:36:18 12° W 17:37:17 10° WNW
Resurs 01 Rocket 1.6 17:37:57 35° SSE 17:39:41 67° ENE 17:44:07 10° N
SPOT 3 Rocket 3.6 17:37:26 31° SE 17:39:46 61° ENE 17:44:51 10° N
ASTRO E2 4.1 17:37:48 10° WSW 17:41:03 24° SSW 17:41:13 24° SSW
Meteor 1-25 Rocket 4.3 17:36:19 10° N 17:42:08 65° E 17:44:55 31° SSE
Sich 1 2.9 17:37:51 10° N 17:42:11 76° E 17:43:46 39° SSE
Cosmos 1602 4.3 17:40:04 10° N 17:43:40 38° E 17:43:40 38° E
FALCON 9 DEB 3.6 17:45:55 10° WNW 17:48:39 44° WSW 17:48:39 44° WSW
CZ-4C R/B 4.2 17:42:59 10° N 17:49:12 28° NE 17:53:26 19° E
OAO 1 4.4 17:44:05 10° W 17:49:33 76° S 17:51:34 40° ESE
FALCON 9 DEB 4.1 17:51:56 10° WNW 17:54:23 33° WSW 17:54:23 33° WSW
Cosmos 1151 Rocket 2.9 17:56:16 50° S 17:57:20 80° E 18:01:43 10° N
SL-4 R/B 2.4 17:58:15 10° NW 18:02:43 66° SW 18:03:26 56° S
ATLAS 5 CENTAUR R/B 2.7 17:57:44 10° NNW 18:03:31 57° NE 18:05:37 40° ESE
FALCON 9 DEB 4.4 18:02:12 10° WNW 18:04:16 30° W 18:04:16 30° W
Cosmos 1812 4.2 18:06:47 26° NE 18:06:47 26° NE 18:08:51 10° NNE
Cosmos 2084 3.9 18:08:36 10° SW 18:12:38 58° NW 18:16:47 10° NNE
Cosmos 1833 Rocket 3.8 18:10:35 10° N 18:15:29 29° ENE 18:16:03 29° ENE
Spot 2 Rocket 3.5 18:16:36 59° E 18:16:57 60° ENE 18:21:55 10° N
GPS 2-04 Rocket1 4.0 18:13:18 10° WSW 18:15:33 30° WSW 18:15:33 30° WSW
Cosmos 773 Rocket 4.2 18:13:13 10° N 18:18:25 53° ENE 18:18:42 52° E
Cosmos 1515 Rocket 4.1 18:19:49 47° NE 18:19:49 47° NE 18:23:15 10° NNE
SPOT 5 3.5 18:22:43 42° ENE 18:22:43 42° ENE 18:27:26 10° N
Terra 3.0 18:27:48 30° NE 18:27:48 30° NE 18:31:14 10° N
ARIANE 5 R/B 2.8 18:28:40 62° NNE 18:28:40 62° NNE 18:32:24 10° N
Meteor 1-14 Rocket 4.1 18:23:10 10° N 18:29:01 77° E 18:29:41 68° SE
ERS-1 Rocket 3.3 18:30:42 51° ENE 18:30:42 51° ENE 18:35:16 10° N
DELTA 2 R/B (1) 3.4 18:25:50 10° WNW 18:31:24 81° SSW 18:31:37 79° SSE
Cosmos 1633 Rocket 3.5 18:29:19 10° NNW 18:33:36 57° W 18:33:36 57° W
Cosmos 1709 Rocket 4.4 18:32:37 10° NNW 18:38:34 56° W 18:40:34 39° SSW
Cosmos 2184 Rocket 4.3 18:32:46 10° N 18:38:44 49° ENE 18:38:44 49° ENE
Cosmos 1777 Rocket 4.5 18:40:31 40° SW 18:42:08 57° WNW 18:47:16 10° N
Cosmos 1470 Rocket 4.0 18:39:20 10° N 18:43:01 59° NNW 18:43:01 59° NNW
CARTOSAT-1 4.2 18:46:29 54° NNW 18:46:29 54° NNW 18:49:53 10° NNW
Cosmos 2074 Rocket 4.1 18:39:32 10° N 18:45:46 59° E 18:45:49 59° E
Nadezhda 1 Rocket 4.4 18:46:55 48° ENE 18:46:55 48° ENE 18:52:21 10° NNE
Meteor 2-6 Rocket 4.1 18:49:25 74° WSW 18:49:37 75° W 18:55:05 10° N
Cosmos 2082 Rocket 3.4 18:45:55 10° N 18:50:26 29° NE 18:50:26 29° NE
COSMOS 2406 3.4 18:45:18 10° NNW 18:50:34 58° NE 18:50:34 58° NE
X-37B 3.7 18:51:08 10° NW 18:52:00 16° NW 18:52:00 16° NW
Milstar 3 3.6 18:45:48 10° WSW 18:58:27 52° S 18:58:43 52° S
Cosmos 2278 Rocket 3.1 19:08:22 36° WSW 19:10:03 46° WNW 19:15:29 10° N
SJ 16-02 2.9 19:15:15 34° NNW 19:15:15 34° NNW 19:18:12 10° N
NOSS 3-4 (A) 4.4 19:08:17 10° NNW 19:15:09 47° NE 19:16:07 45° ENE
NOSS 3-4 (C) 4.4 19:08:23 10° NNW 19:15:14 46° NE 19:16:14 44° ENE
Meteor 1-11 Rocket 4.1 19:10:10 10° N 19:15:16 62° NNE 19:15:16 62° NNE
Cosmos 1943 Rocket 4.0 19:29:41 20° NE 19:29:41 20° NE 19:31:33 10° NE
ATLAS 2AS CENTAUR R/B 3.8 19:22:02 10° NNW 19:28:29 33° NE 19:29:28 32° ENE
CZ-4C R/B 3.0 19:30:44 10° NW 19:38:25 74° WSW 19:38:37 74° SW
ATLAS 5 CENTAUR R/B 4.1 19:43:07 10° WNW 19:47:09 24° W 19:47:09 24° W
Cosmos 1833 Rocket 4.2 19:54:19 10° NW 19:57:45 29° WNW 19:57:45 29° WNW
Terra 4.1 20:06:40 18° WNW 20:06:40 18° WNW 20:08:32 10° NW
Cosmos 2082 Rocket 4.0 20:29:47 10° NW 20:32:17 23° WNW 20:32:17 23° WNW
Cosmos 2369 Rocket 3.6 21:06:18 34° N 21:06:18 34° N 21:09:37 10° NNE
Cosmos 1943 Rocket 4.0 21:11:10 25° NW 21:11:10 25° NW 21:14:50 10° N
USA 215 4.0 21:09:54 46° NE 21:10:29 47° NE 21:16:41 10° NNW
SeaSat 1 4.3 21:13:05 10° NNE 21:15:22 27° N 21:15:22 27° N
ATLAS 2AS CENTAUR R/B 3.9 21:12:51 10° NW 21:16:53 33° WNW 21:16:53 33° WNW
USA 281 4.2 21:45:13 35° E 21:46:20 38° ENE 21:52:17 10° N
CZ-2D R/B 3.9 21:48:07 10° NE 21:51:07 24° ENE 21:51:07 24° ENE
ATLAS CENTAUR R/B 4.5 21:58:46 11° N 21:58:46 11° N 21:58:54 10° N
ADEOS II 4.3 22:05:00 10° NE 22:07:47 17° E 22:07:47 17° E
Resurs 1-4 Rocket 3.4 22:08:45 10° NNE 22:12:14 36° NE 22:12:14 36° NE
Cosmos 1605 Rocket 4.4 22:07:31 10° N 22:12:36 61° N 22:12:36 61° N
Lacrosse 5 3.3 22:19:35 34° NE 22:19:35 34° NE 22:22:27 10° NE
Cosmos 2100 Rocket 4.3 22:43:35 10° N 22:49:49 61° E 22:50:37 56° ESE
SL-16 R/B 2.4 22:55:33 83° SE 22:55:48 85° ENE 23:02:05 10° NNW
COSMOS 2455 4.0 22:51:29 10° NNW 22:57:07 39° ENE 23:02:42 10° SE
Cosmos 1455 Rocket 4.4 22:59:09 10° NNE 23:02:53 35° ENE 23:02:53 35° ENE
ADEOS Rocket 4.3 23:03:00 12° SE 23:09:17 47° ENE 23:16:34 10° N
Tianhe-1 4.4 23:11:58 11° ENE 23:11:58 11° ENE 23:12:10 10° ENE
Cosmos 1626 4.3 23:10:17 23° ENE 23:10:17 23° ENE 23:12:37 10° NE
Cosmos 1000 Rocket 4.4 23:12:08 75° WSW 23:12:23 76° W 23:18:40 10° N
BREEZE-M DEB (TANK) 3.0 23:16:36 67° WNW 23:16:56 69° NNW 23:27:51 10° NE
Cosmos 1697 Rocket 3.2 23:16:33 45° SE 23:17:16 47° ESE 23:22:38 10° NE
NPP 4.0 23:15:57 10° N 23:20:48 50° WNW 23:20:48 50° WNW
Cosmos 1980 Rocket 3.7 23:25:47 22° SE 23:28:01 29° ESE 23:32:48 10° NE
Meteor 1-28 Rocket 4.3 23:28:21 42° ENE 23:28:21 42° ENE 23:31:33 10° N
Helios 1B rocket 4.3 23:26:17 10° NNW 23:28:15 21° NW 23:28:15 21° NW
Cosmos 1975 Rocket 3.8 23:31:09 43° NNW 23:31:09 43° NNW 23:34:20 10° N
USA 281 4.0 23:32:04 33° W 23:32:04 33° W 23:36:42 10° NW
CZ-2D R/B 3.1 23:27:58 10° N 23:32:26 32° WNW 23:32:26 32° WNW
Cosmos 1315 Rocket 4.0 23:29:57 10° NNW 23:32:21 35° NNW 23:32:21 35° NNW
SL-14 R/B 4.5 23:35:47 35° ESE 23:36:06 35° E 23:39:41 10° NNE
IDEFIX/ARIANE 42P 2.9 23:32:05 10° NNE 23:37:18 61° E 23:38:42 45° SSE
Cosmos 2369 4.2 23:36:17 40° SSE 23:37:55 53° ESE 23:43:28 10° NNE
Cosmos 2227 Rocket 2.8 23:35:12 10° NNW 23:40:45 55° ENE 23:46:16 10° SE
Lacrosse 4 Rocket 2.1 23:43:05 46° SE 23:43:34 48° ESE 23:47:52 10° NE
Cosmos 2297 Rocket 2.2 23:38:34 10° NNW 23:44:16 80° ENE 23:48:34 18° SSE
Cosmos 2251 Rocket 3.3 23:40:55 10° NNW 23:46:10 85° WSW 23:47:40 48° S
Cosmos 1725 Rocket 3.9 23:41:53 10° N 23:48:10 87° W 23:51:04 34° S
BREEZE-M R/B 4.2 23:45:56 36° W 23:48:10 56° SW 23:58:42 10° SE
ADEOS II 2.3 23:43:11 10° N 23:48:16 50° WNW 23:48:43 49° W
Cosmos 304 Rocket 3.6 23:48:32 72° SSW 23:49:01 86° WNW 23:53:50 10° NNE
IRS-1D 3.7 23:45:09 10° N 23:50:24 60° WNW 23:51:13 53° WSW
Resurs 1-4 Rocket 3.7 23:49:31 10° NNW 23:53:13 20° WNW 23:53:18 20° WNW
